Погода в Гдыне

Польша     54˚30′29″N   18˚32′35″E
темп.,
°C
ветер,
м/с
пор.,
м/с
влажн.,
%
обл.,
%
осадки,
мм/ч
давл.,
гПа
погр.,
м
5 декабря, сб
сб501:00+3˚ююв71681100 0.0 1004554
04:00+3˚ююв81885100 0.0 1004554
07:00+4˚ююв81687100 0.0 1005505
10:00+5˚ююв81784100 0.0 1006616
13:00+7˚ююв71679100 0.0 1007783
16:00+8˚ююв71680100 0.0 1007579
19:00+7˚ююв61683100 0.0 1009457
22:00+6˚ююв51389100 0.0 1010432
6 декабря, вс
вс601:00+6˚ююв71490100 0.0 1011439
04:00+6˚ююв81688100 0.0 1010465
07:00+6˚ююв91787100 0.0 1010492
10:00+6˚ююв91785100 0.0 1011554
13:00+8˚ююв91878100 0.0 1012604
16:00+8˚ююв91880100 0.0 1011587
19:00+6˚ююв9178299 0.0 1013640
22:00+5˚ююв9178326 0.0 1013635
7 декабря, пн
пн701:00+4˚юв9168320 0.0 1013631
04:00+2˚юв916793 0.0 1012621
07:00+2˚юв916761 0.0 1012664
10:00+2˚юв916720 0.0 1012682
13:00+3˚юв915670 0.0 1012719
16:00+2˚юв1016670 0.0 1012682
19:00+2˚ююв9166738 0.0 1013654
22:00+2˚юв9156591 0.0 1014660
8 декабря, вт
вт801:00+1˚юв9156876 0.0 1014653
04:00юв9147173 0.0 1014637
07:00юв9137186 0.0 1015646
10:00юв81372100 0.0 1015662
13:00+2˚юв81273100 0.0 1016669
16:00+1˚юв81277100 0.0 1016655
19:00+1˚юв7128199 0.0 1017569
22:00+1˚ююв61083100 0.0 1018530
9 декабря, ср
ср901:00юв6981100 0.0 1019443
04:00ююв687698 0.0 1019438
07:00юв697697 0.0 1019409
10:00−1˚юв687590 0.0 1020395
13:00юв577568 0.0 1019412
16:00юв578039 0.0 1018445
19:00юв588054 0.0 1018482
22:00юв588196 0.0 1018526